SPACEBEE-16 (46308 NORAD) Tracking and Keplerian Element Data

This shows tracking and keplerian element data for the satellite.

Feedback or suggestion? Click here.




ElementValue
Catalog46308
NameSPACEBEE-16
Epoch Orbit2181
Epoch Day26.24271798
Epoch Year2021
RAAN102.7652
Inclination97.5055
Eccentricity0.0002193
Argument of Perigee117.6725
Mean Anonmoly242.4728
Mean Motion15.11398467
Decay Rate4.04E-05
L11 46308U 20061AN 21026.24271798 .00004040 00000-0 24305-3 0 9996
L22 46308 97.5055 102.7652 0002193 117.6725 242.4728 15.11398467 21817

Live tracking and technical data element details for SPACEBEE-16 (NORAD 46308). SPACEBEE-16 can be tracked NOW for your location showing map with azimuth and elevation plus other details from your city location.

Track the satellite on the map from your city or location and see movement details for azimuth, elevation, latitude, longitude, range, height, and movement on the map or in text.







IsCatalogInMostPopularTable: catalog: 46308, numindb: 44
Update: records affected: 1



GetName: 46308 SPACEBEE-16

Hit Count: updated at: Thu, 28 Jan 2021 11:22:38 GMT